Flag for U.S.A. Weather past 2 weeks in Grand Prairie, Texas, U.S.A.

Now
51 °F

Clear.


Feels Like: 49 °F
Forecast: 46 / 69 °F
Wind: 6 mph from Northwest

Location: Arlington Municipal Airport

Current Time: Mar 26, 2015 at 11:36:50 PM

Latest Report: Mar 26, 2015 at 10:53 PM


Visibility: 10 mi

Pressure: 30.16 "Hg

Humidity: 48%

Dew point: 32 °F

Location of Grand PrairieLocation

Historic Weather in Grand Prairie — Graph

°F

Grand Prairie temperature yesterday

Maximum temperature yesterday: 82 °F (at 3:53 PM)
Minimum temperature yesterday: 63 °F (at 6:53 AM)
Average temperature yesterday: 73 °F

Past Weeks' High & Low Weather Summary

 TemperatureHumidityPressure
High82 °F (Mar 24, 2:53 PM)93% (Mar 19, 8:53 AM)30.31 "Hg (Mar 19, 8:53 AM)
Low46 °F (Mar 12, 2:53 AM)25% (Mar 26, 5:53 PM)29.73 "Hg (Mar 25, 11:53 PM)
Average63 °F71%30.04 "Hg
* Reported Mar 11 9:53 PM — Mar 26 9:53 PM, Grand Prairie, Weather by CustomWeather, © 2015

Note: Actual official high and low records may vary slightly from our data, if they occured in-between our weather recording intervals... More about our weather records

Advertising

Grand Prairie weather history for previous 24 hours

 ConditionsComfort  
Time TempWeatherWind HumidityBarometerVisibility
9:53 PM
Thu, Mar 26
55 °FClear.7 mph42%30.15 "Hg10 mi
8:53 PM58 °FClear.10 mph33%30.13 "Hg10 mi
7:53 PM61 °FSunny.16 mph29%30.10 "Hg10 mi
6:53 PM64 °FSunny.16 mph25%30.08 "Hg10 mi
5:53 PM66 °FSunny.21 mph25%30.06 "Hg10 mi
4:53 PM67 °FSunny.15 mph27%30.06 "Hg10 mi
3:53 PM65 °FSunny.20 mph28%30.08 "Hg10 mi
2:53 PM66 °FSunny.16 mph31%30.09 "Hg10 mi
1:53 PM63 °FSunny.23 mph43%30.12 "Hg10 mi
12:53 PM61 °FPassing clouds.20 mph48%30.12 "Hg10 mi
11:53 AM57 °FPartly sunny.22 mph55%30.13 "Hg10 mi
10:53 AM54 °FOvercast.20 mph62%30.13 "Hg10 mi
9:53 AM52 °FOvercast.18 mph66%30.11 "Hg10 mi
8:53 AM52 °FOvercast.18 mph66%30.09 "Hg10 mi
7:53 AM52 °FOvercast.18 mph66%30.06 "Hg10 mi
6:53 AM52 °FOvercast.24 mph69%30.02 "Hg10 mi
5:53 AM53 °FOvercast.22 mph66%29.99 "Hg10 mi
4:53 AM54 °FOvercast.26 mph67%29.98 "Hg10 mi
3:53 AM55 °FOvercast.26 mph74%29.95 "Hg10 mi
2:53 AM59 °FOvercast.17 mph78%29.92 "Hg10 mi
2:01 AM62 °FPassing clouds.21 mph80%29.89 "Hg10 mi
1:03 AM73 °FThundershowers. Passing clouds.6 mph64%29.85 "Hg10 mi
12:53 AM72 °FPassing clouds.9 mph64%29.83 "Hg10 mi
11:53 PM
Wed, Mar 25
71 °FClear.16 mph66%29.73 "Hg10 mi
Weather by CustomWeather, © 2015

See weather overviewHow to use our weather pages